Location: Melara
(45.0500°N, 11.1833°E)
Time: 02:31:13
(UTC+00:00)

USA 306 - Pass Details

Date: 26 May 2022
Orbit: 545 x 556 km, 54.0° (Epoch: 20 June)

Event Time Altitude Azimuth Distance (km) Brightness Sun altitude
Exits shadow 01:42:37 - 276° (W) 1,883 5.2 -15.5°
Reaches altitude 10° 01:42:45 10° 277° (W) 1,836 5.2 -15.5°
Maximum altitude 01:46:32 32° 342° (NNW) 963 4.4 -15.1°
Drops below altitude 10° 01:50:21 10° 47° (NE) 1,850 6.9 -14.7°
Sets 01:52:47 0° 57° (ENE) 2,750 7.9 -14.4°
